Regional Weather Roundup
Issued by NWS

Home | Current Version | Previous Version | Text Only | Print | Product List | Glossary On
Versions: 1 2 3 4 5 6 7 8 9 10 11 12 13 14 15 16 17 18 19 20 21 22 23 24 25 26 27 28 29 30 31 32 33 34 35 36 37 38 39 40 41 42 43 44 45 46 47 48 49 50
000
ASUS44 KOUN 271510
RWROK

WEATHER ROUNDUP FOR OKLAHOMA
NATIONAL WEATHER SERVICE NORMAN OK
1000 AM CDT MON MAR 27 2017

NOTE: "FAIR" INDICATES FEW OR NO CLOUDS BELOW 12,000 FEET WITH NO
      SIGNIFICANT WEATHER AND/OR OBSTRUCTIONS TO VISIBILITY.

OKZ001>007-009>012-014-015-017-271600-
NORTHWEST OKLAHOMA AND THE PANHANDLE

CITY           SKY/WX    TMP DP  RH WIND       PRES   REMARKS
GAGE           PTSUNNY   50  42  74 NW9       29.99R
GUYMON         SUNNY     47  41  80 CALM      30.00R
ENID/WOODRING  CLOUDY    52  48  87 MISG      29.94R
$$

OKZ016-021>023-033>039-044-045-271600-
SOUTHWEST OKLAHOMA

CITY           SKY/WX    TMP DP  RH WIND       PRES   REMARKS
LAWTON/REGL    MOSUNNY   58  48  69 N17       29.94R
LAWTON/FT SILL SUNNY     57  48  71 N16       29.93R
FREDERICK      MOSUNNY   55  45  68 N17       29.93S
CLINTON        MOSUNNY   53  44  71 N17       29.98R
HOBART         MOSUNNY   55  45  68 N13       29.98R
ALTUS AFB      SUNNY     55  43  65 N13       29.97R
$$

OKZ018>020-024>031-271600-
CENTRAL OKLAHOMA

CITY           SKY/WX    TMP DP  RH WIND       PRES   REMARKS
OKLAHOMA CITY  CLOUDY    52  47  83 N17       29.94R
OKC/WILEY POST CLOUDY    52  48  86 N16G23    29.94R
OKC/TINKER AFB PTSUNNY   54  47  77 N16       29.92R
STILLWATER     CLOUDY    53  46  77 N10G23    29.94R
GUTHRIE        CLOUDY    53  47  79 N7        29.95R
$$

OKZ008-013-054>072-271600-
NORTHEAST OKLAHOMA

CITY           SKY/WX    TMP DP  RH WIND       PRES   REMARKS
TULSA          CLOUDY    54  51  90 NW12      29.88R
TULSA/JONES    CLOUDY    56  50  80 N7        29.89R
PONCA CITY     CLOUDY    52  46  80 N13       29.94R
BARTLESVILLE   CLOUDY    52  48  86 VRB3      29.92R
MUSKOGEE       CLOUDY    57  54  89 NW13      29.88R
$$

OKZ032-040>043-046>053-073>077-271600-
SOUTH CENTRAL/SOUTHEAST OKLAHOMA

CITY           SKY/WX    TMP DP  RH WIND       PRES   REMARKS
ARDMORE/DWNTWN CLOUDY    55  48  76 NE6       29.93R
MCALESTER      CLOUDY    56  52  86 NW12      29.90R FOG
$$




USA.gov is the U.S. government's official web portal to all federal, state and local government web resources and services.